Time,TemperatureF,DewpointF,PressureIn,WindDirection,WindDirectionDegrees,WindSpeedMPH,WindSpeedGustMPH,Humidity,HourlyPrecipIn,Conditions,Clouds,dailyrainin,SolarRadiationWatts/m^2,SoftwareType,DateUTC
2013-02-14 00:04:00,33.2,31.7,29.75,WSW,248,1.0,3.0,94,0.00,CLR,CLR,0.00,0.0,WeatherDisplay:10.37,2013-02-14 06:04:00,
2013-02-14 00:09:00,33.3,31.8,29.75,WSW,245,1.0,3.0,94,0.00,CLR,CLR,0.00,0.0,WeatherDisplay:10.37,2013-02-14 06:09:00,
2013-02-14 00:14:00,33.4,31.9,29.75,WSW,242,1.0,3.0,94,0.00,CLR,CLR,0.00,0.0,WeatherDisplay:10.37,2013-02-14 06:14:00,
2013-02-14 00:19:00,33.5,32.0,29.75,WSW,238,1.0,3.0,94,0.00,CLR,CLR,0.00,0.0,WeatherDisplay:10.37,2013-02-14 06:19:00,
2013-02-14 00:24:00,33.6,32.0,29.75,WSW,237,1.0,2.0,94,0.00,CLR,CLR,0.00,0.0,WeatherDisplay:10.37,2013-02-14 06:24:00,
2013-02-14 00:34:00,33.5,31.7,29.74,WSW,237,0.0,1.0,93,0.00,CLR,CLR,0.00,0.0,WeatherDisplay:10.37,2013-02-14 06:34:00,
2013-02-14 00:39:00,33.5,31.7,29.74,WSW,237,1.0,2.0,93,0.00,CLR,CLR,0.00,0.0,WeatherDisplay:10.37,2013-02-14 06:39:00,
2013-02-14 00:44:00,33.5,31.7,29.74,WSW,237,0.0,1.0,93,0.00,CLR,CLR,0.00,0.0,WeatherDisplay:10.37,2013-02-14 06:44:00,
2013-02-14 00:54:00,33.4,31.6,29.74,WSW,237,0.0,2.0,93,0.00,CLR,CLR,0.00,0.0,WeatherDisplay:10.37,2013-02-14 06:54:00,
2013-02-14 00:59:00,33.4,31.6,29.74,WSW,237,0.0,2.0,93,0.00,CLR,CLR,0.00,0.0,WeatherDisplay:10.37,2013-02-14 06:59:00,
2013-02-14 01:04:00,33.4,31.6,29.74,WSW,237,1.0,2.0,93,0.00,CLR,CLR,0.00,0.0,WeatherDisplay:10.37,2013-02-14 07:04:00,
2013-02-14 01:14:00,33.7,32.2,29.73,WSW,237,1.0,2.0,94,0.00,CLR,CLR,0.00,0.0,WeatherDisplay:10.37,2013-02-14 07:14:00,
2013-02-14 01:24:00,34.1,32.3,29.73,SSW,200,2.0,3.0,93,0.00,CLR,CLR,0.00,0.0,WeatherDisplay:10.37,2013-02-14 07:24:00,
2013-02-14 01:29:00,34.4,32.6,29.73,South,179,1.0,4.0,93,0.00,CLR,CLR,0.00,0.0,WeatherDisplay:10.37,2013-02-14 07:29:00,
2013-02-14 01:34:00,34.6,32.5,29.73,South,170,1.0,3.0,92,0.00,CLR,CLR,0.00,0.0,WeatherDisplay:10.37,2013-02-14 07:34:00,
2013-02-14 01:39:00,34.6,32.5,29.73,South,170,1.0,3.0,92,0.00,CLR,CLR,0.00,0.0,WeatherDisplay:10.37,2013-02-14 07:39:00,
2013-02-14 01:44:00,34.7,32.6,29.73,South,171,2.0,5.0,92,0.00,CLR,CLR,0.00,0.0,WeatherDisplay:10.37,2013-02-14 07:44:00,
2013-02-14 01:49:00,34.8,32.7,29.73,SSE,168,1.0,5.0,92,0.00,CLR,CLR,0.00,0.0,WeatherDisplay:10.37,2013-02-14 07:49:00,
2013-02-14 01:54:00,34.9,32.8,29.73,SSE,167,0.0,2.0,92,0.00,CLR,CLR,0.00,0.0,WeatherDisplay:10.37,2013-02-14 07:54:00,
2013-02-14 01:59:00,34.8,32.7,29.73,SSE,167,0.0,1.0,92,0.00,CLR,CLR,0.00,0.0,WeatherDisplay:10.37,2013-02-14 07:59:00,
2013-02-14 02:04:00,34.8,32.8,29.73,SSE,167,1.0,3.0,92,0.00,CLR,CLR,0.00,0.0,WeatherDisplay:10.37,2013-02-14 08:04:00,
2013-02-14 02:09:00,35.0,32.9,29.72,South,169,1.0,3.0,92,0.00,CLR,CLR,0.00,0.0,WeatherDisplay:10.37,2013-02-14 08:09:00,
2013-02-14 02:14:00,35.0,32.9,29.72,South,171,1.0,4.0,92,0.00,CLR,CLR,0.00,0.0,WeatherDisplay:10.37,2013-02-14 08:14:00,
2013-02-14 02:19:00,35.1,32.8,29.72,South,169,3.0,5.0,91,0.00,CLR,CLR,0.00,0.0,WeatherDisplay:10.37,2013-02-14 08:19:00,
2013-02-14 02:24:00,35.3,33.0,29.72,SSE,163,1.0,5.0,91,0.00,CLR,CLR,0.00,0.0,WeatherDisplay:10.37,2013-02-14 08:24:00,
2013-02-14 02:34:00,35.4,32.8,29.71,South,182,3.0,6.0,90,0.00,CLR,CLR,0.00,0.0,WeatherDisplay:10.37,2013-02-14 08:34:00,
2013-02-14 02:39:00,35.5,32.9,29.71,SSE,166,5.0,7.0,90,0.00,CLR,CLR,0.00,0.0,WeatherDisplay:10.37,2013-02-14 08:39:00,
2013-02-14 02:44:00,35.7,33.1,29.70,South,172,2.0,9.0,90,0.00,CLR,CLR,0.00,0.0,WeatherDisplay:10.37,2013-02-14 08:44:00,
2013-02-14 02:49:00,35.7,33.1,29.70,South,174,2.0,4.0,90,0.00,CLR,CLR,0.00,0.0,WeatherDisplay:10.37,2013-02-14 08:49:00,
2013-02-14 02:54:00,35.8,33.2,29.71,South,191,2.0,6.0,90,0.00,CLR,CLR,0.00,0.0,WeatherDisplay:10.37,2013-02-14 08:54:00,
2013-02-14 02:59:00,36.0,33.1,29.71,SW,230,6.0,8.0,89,0.00,CLR,CLR,0.00,0.0,WeatherDisplay:10.37,2013-02-14 08:59:00,
2013-02-14 03:04:00,36.2,33.3,29.71,SW,221,6.0,8.0,89,0.00,CLR,CLR,0.00,0.0,WeatherDisplay:10.37,2013-02-14 09:04:00,
2013-02-14 03:09:00,36.1,33.2,29.70,SSW,197,2.0,7.0,89,0.00,CLR,CLR,0.00,0.0,WeatherDisplay:10.37,2013-02-14 09:09:00,
2013-02-14 03:14:00,36.1,33.2,29.70,South,189,2.0,4.0,89,0.00,CLR,CLR,0.00,0.0,WeatherDisplay:10.37,2013-02-14 09:14:00,
2013-02-14 03:29:00,36.1,33.2,29.70,SSW,199,2.0,7.0,89,0.00,CLR,CLR,0.00,0.0,WeatherDisplay:10.37,2013-02-14 09:29:00,
2013-02-14 03:34:00,36.2,33.3,29.70,SSW,195,5.0,8.0,89,0.00,CLR,CLR,0.00,0.0,WeatherDisplay:10.37,2013-02-14 09:34:00,
2013-02-14 03:39:00,36.3,33.4,29.70,SSW,197,3.0,5.0,89,0.00,CLR,CLR,0.00,0.0,WeatherDisplay:10.37,2013-02-14 09:39:00,
2013-02-14 03:44:00,36.3,33.4,29.69,South,189,3.0,6.0,89,0.00,CLR,CLR,0.00,0.0,WeatherDisplay:10.37,2013-02-14 09:44:00,
2013-02-14 03:54:00,36.2,33.3,29.69,South,179,5.0,7.0,89,0.00,CLR,CLR,0.00,0.0,WeatherDisplay:10.37,2013-02-14 09:54:00,
2013-02-14 03:59:00,36.3,33.3,29.69,South,181,5.0,7.0,89,0.00,CLR,CLR,0.00,0.0,WeatherDisplay:10.37,2013-02-14 09:59:00,
2013-02-14 04:04:00,36.4,33.5,29.69,South,181,3.0,6.0,89,0.00,CLR,CLR,0.00,0.0,WeatherDisplay:10.37,2013-02-14 10:04:00,
2013-02-14 04:09:00,36.4,33.2,29.68,South,179,5.0,7.0,88,0.00,CLR,CLR,0.00,0.0,WeatherDisplay:10.37,2013-02-14 10:09:00,
2013-02-14 04:14:00,36.6,33.4,29.68,South,172,6.0,9.0,88,0.00,CLR,CLR,0.00,0.0,WeatherDisplay:10.37,2013-02-14 10:14:00,
2013-02-14 04:19:00,36.6,33.4,29.67,SSE,164,7.0,10.0,88,0.00,CLR,CLR,0.00,0.0,WeatherDisplay:10.37,2013-02-14 10:19:00,
2013-02-14 04:24:00,36.6,33.1,29.67,SSE,165,6.0,9.0,87,0.00,CLR,CLR,0.00,0.0,WeatherDisplay:10.37,2013-02-14 10:24:00,
2013-02-14 04:29:00,36.6,33.1,29.67,SSE,165,6.0,9.0,87,0.00,CLR,CLR,0.00,0.0,WeatherDisplay:10.37,2013-02-14 10:29:00,
2013-02-14 04:34:00,36.8,33.3,29.67,South,171,6.0,8.0,87,0.00,CLR,CLR,0.00,0.0,WeatherDisplay:10.37,2013-02-14 10:34:00,
2013-02-14 04:44:00,36.8,33.3,29.66,SSE,159,5.0,8.0,87,0.00,CLR,CLR,0.00,0.0,WeatherDisplay:10.37,2013-02-14 10:44:00,
2013-02-14 04:49:00,36.7,33.2,29.66,SSE,162,6.0,8.0,87,0.00,CLR,CLR,0.00,0.0,WeatherDisplay:10.37,2013-02-14 10:49:00,
2013-02-14 04:54:00,36.6,33.4,29.66,SSE,166,6.0,8.0,88,0.00,CLR,CLR,0.00,0.0,WeatherDisplay:10.37,2013-02-14 10:54:00,
2013-02-14 04:59:00,36.6,33.4,29.67,SSW,193,7.0,12.0,88,0.00,CLR,CLR,0.00,0.0,WeatherDisplay:10.37,2013-02-14 10:59:00,
2013-02-14 05:04:00,36.7,33.5,29.68,SW,219,6.0,10.0,88,0.00,CLR,CLR,0.00,0.0,WeatherDisplay:10.37,2013-02-14 11:04:00,
2013-02-14 05:09:00,36.9,33.3,29.68,SW,217,6.0,12.0,87,0.00,CLR,CLR,0.00,0.0,WeatherDisplay:10.37,2013-02-14 11:09:00,
2013-02-14 05:14:00,36.9,33.4,29.67,SSW,212,6.0,12.0,87,0.00,CLR,CLR,0.00,0.0,WeatherDisplay:10.37,2013-02-14 11:14:00,
2013-02-14 05:19:00,36.7,33.5,29.68,SSW,209,6.0,12.0,88,0.00,CLR,CLR,0.00,0.0,WeatherDisplay:10.37,2013-02-14 11:19:00,
2013-02-14 05:24:00,36.6,33.4,29.67,SSW,211,5.0,9.0,88,0.00,CLR,CLR,0.00,0.0,WeatherDisplay:10.37,2013-02-14 11:24:00,
2013-02-14 05:29:00,36.6,33.3,29.67,SW,215,7.0,12.0,88,0.00,CLR,CLR,0.00,0.0,WeatherDisplay:10.37,2013-02-14 11:29:00,
2013-02-14 05:34:00,36.5,33.3,29.67,SW,218,7.0,10.0,88,0.00,CLR,CLR,0.00,0.0,WeatherDisplay:10.37,2013-02-14 11:34:00,
2013-02-14 05:39:00,36.5,33.3,29.68,SW,218,6.0,9.0,88,0.00,CLR,CLR,0.00,0.0,WeatherDisplay:10.37,2013-02-14 11:39:00,
2013-02-14 05:44:00,36.5,33.3,29.67,SSW,213,5.0,10.0,88,0.00,CLR,CLR,0.00,0.0,WeatherDisplay:10.37,2013-02-14 11:44:00,
2013-02-14 05:49:00,36.5,33.6,29.68,SW,215,6.0,10.0,89,0.00,CLR,CLR,0.00,0.0,WeatherDisplay:10.37,2013-02-14 11:49:00,
2013-02-14 05:54:00,36.5,33.6,29.67,SSW,212,7.0,12.0,89,0.00,CLR,CLR,0.00,0.0,WeatherDisplay:10.37,2013-02-14 11:54:00,
2013-02-14 05:59:00,36.4,33.5,29.67,SSW,210,5.0,12.0,89,0.00,CLR,CLR,0.00,0.0,WeatherDisplay:10.37,2013-02-14 11:59:00,
2013-02-14 06:04:00,36.4,33.4,29.67,SW,217,8.0,12.0,89,0.00,CLR,CLR,0.00,0.0,WeatherDisplay:10.37,2013-02-14 12:04:00,
2013-02-14 06:09:00,36.4,33.5,29.67,SW,218,7.0,12.0,89,0.00,CLR,CLR,0.00,0.0,WeatherDisplay:10.37,2013-02-14 12:09:00,
2013-02-14 06:14:00,36.3,33.0,29.67,SW,220,6.0,9.0,88,0.00,CLR,CLR,0.00,0.0,WeatherDisplay:10.37,2013-02-14 12:14:00,
2013-02-14 06:19:00,36.1,33.1,29.67,SW,218,6.0,9.0,89,0.00,CLR,CLR,0.00,0.0,WeatherDisplay:10.37,2013-02-14 12:19:00,
2013-02-14 06:24:00,36.1,33.2,29.68,SW,220,6.0,9.0,89,0.00,CLR,CLR,0.00,0.0,WeatherDisplay:10.37,2013-02-14 12:24:00,
2013-02-14 06:29:00,36.0,33.0,29.68,SW,220,5.0,7.0,89,0.00,CLR,CLR,0.00,0.0,WeatherDisplay:10.37,2013-02-14 12:29:00,
2013-02-14 06:39:00,35.8,32.9,29.68,SW,216,5.0,9.0,89,0.00,CLR,CLR,0.00,0.0,WeatherDisplay:10.37,2013-02-14 12:39:00,
2013-02-14 06:44:00,35.6,32.7,29.68,SW,220,5.0,8.0,89,0.00,CLR,CLR,0.00,0.0,WeatherDisplay:10.37,2013-02-14 12:44:00,
2013-02-14 06:49:00,35.5,32.9,29.68,SW,216,6.0,9.0,90,0.00,CLR,CLR,0.00,0.0,WeatherDisplay:10.37,2013-02-14 12:49:00,
2013-02-14 06:54:00,35.3,32.7,29.68,SW,218,6.0,8.0,90,0.00,CLR,CLR,0.00,0.0,WeatherDisplay:10.37,2013-02-14 12:54:00,
2013-02-14 06:59:00,35.3,32.7,29.68,SW,220,5.0,7.0,90,0.00,CLR,CLR,0.00,0.0,WeatherDisplay:10.37,2013-02-14 12:59:00,
2013-02-14 07:04:00,35.6,32.9,29.68,SW,215,8.0,10.0,90,0.00,CLR,CLR,0.00,0.0,WeatherDisplay:10.37,2013-02-14 13:04:00,
2013-02-14 07:09:00,35.7,33.1,29.68,SW,218,6.0,10.0,90,0.00,CLR,CLR,0.00,0.0,WeatherDisplay:10.37,2013-02-14 13:09:00,
2013-02-14 07:14:00,35.8,33.2,29.68,SW,225,6.0,10.0,90,0.00,CLR,CLR,0.00,0.0,WeatherDisplay:10.37,2013-02-14 13:14:00,
2013-02-14 07:19:00,35.9,33.3,29.68,SW,225,6.0,7.0,90,0.00,CLR,CLR,0.00,0.0,WeatherDisplay:10.37,2013-02-14 13:19:00,
2013-02-14 07:24:00,36.2,33.5,29.68,SW,225,7.0,9.0,90,0.00,CLR,CLR,0.00,0.0,WeatherDisplay:10.37,2013-02-14 13:24:00,
2013-02-14 07:29:00,36.5,33.6,29.69,SW,218,7.0,10.0,89,0.00,CLR,CLR,0.00,0.0,WeatherDisplay:10.37,2013-02-14 13:29:00,
2013-02-14 07:34:00,36.8,33.9,29.69,SW,216,7.0,12.0,89,0.00,CLR,CLR,0.00,0.0,WeatherDisplay:10.37,2013-02-14 13:34:00,
2013-02-14 07:39:00,37.0,34.1,29.69,SW,223,7.0,9.0,89,0.00,CLR,CLR,0.00,0.0,WeatherDisplay:10.37,2013-02-14 13:39:00,
2013-02-14 07:44:00,37.3,34.0,29.69,SW,226,7.0,12.0,88,0.00,CLR,CLR,0.00,0.0,WeatherDisplay:10.37,2013-02-14 13:44:00,
2013-02-14 07:49:00,37.1,33.9,29.69,SW,229,8.0,10.0,88,0.00,CLR,CLR,0.00,0.0,WeatherDisplay:10.37,2013-02-14 13:49:00,
2013-02-14 07:54:00,36.8,33.6,29.69,SW,230,7.0,12.0,88,0.00,CLR,CLR,0.00,0.0,WeatherDisplay:10.37,2013-02-14 13:54:00,
2013-02-14 07:59:00,36.7,33.8,29.69,SW,231,7.0,12.0,89,0.00,CLR,CLR,0.00,0.0,WeatherDisplay:10.37,2013-02-14 13:59:00,
2013-02-14 08:04:00,36.7,33.8,29.70,SW,234,8.0,12.0,89,0.00,CLR,CLR,0.00,0.0,WeatherDisplay:10.37,2013-02-14 14:04:00,
2013-02-14 08:09:00,36.8,33.9,29.70,WSW,239,9.0,12.0,89,0.00,CLR,CLR,0.00,0.0,WeatherDisplay:10.37,2013-02-14 14:09:00,
2013-02-14 08:14:00,37.0,34.0,29.70,WSW,240,8.0,12.0,89,0.00,CLR,CLR,0.00,0.0,WeatherDisplay:10.37,2013-02-14 14:14:00,
2013-02-14 08:19:00,37.0,34.0,29.70,WSW,242,9.0,13.0,89,0.00,CLR,CLR,0.00,0.0,WeatherDisplay:10.37,2013-02-14 14:19:00,
2013-02-14 08:24:00,37.1,34.1,29.70,WSW,238,9.0,12.0,89,0.00,CLR,CLR,0.00,0.0,WeatherDisplay:10.37,2013-02-14 14:24:00,
2013-02-14 08:29:00,37.2,34.3,29.70,WSW,242,8.0,12.0,89,0.00,CLR,CLR,0.00,0.0,WeatherDisplay:10.37,2013-02-14 14:29:00,
2013-02-14 08:34:00,37.4,34.1,29.70,WSW,247,10.0,16.0,88,0.00,CLR,CLR,0.00,0.0,WeatherDisplay:10.37,2013-02-14 14:34:00,
2013-02-14 08:39:00,37.8,34.6,29.70,WSW,251,10.0,14.0,88,0.00,CLR,CLR,0.00,0.0,WeatherDisplay:10.37,2013-02-14 14:39:00,
2013-02-14 08:44:00,37.8,34.3,29.70,WSW,252,10.0,14.0,87,0.00,CLR,CLR,0.00,0.0,WeatherDisplay:10.37,2013-02-14 14:44:00,
2013-02-14 08:49:00,37.7,34.2,29.70,WSW,249,10.0,15.0,87,0.00,CLR,CLR,0.00,0.0,WeatherDisplay:10.37,2013-02-14 14:49:00,
2013-02-14 08:54:00,37.7,34.2,29.70,WSW,252,9.0,15.0,87,0.00,CLR,CLR,0.00,0.0,WeatherDisplay:10.37,2013-02-14 14:54:00,
2013-02-14 08:59:00,37.9,34.4,29.71,WSW,255,8.0,14.0,87,0.00,CLR,CLR,0.00,0.0,WeatherDisplay:10.37,2013-02-14 14:59:00,
2013-02-14 09:04:00,38.4,34.6,29.71,WSW,253,7.0,15.0,86,0.00,CLR,CLR,0.00,0.0,WeatherDisplay:10.37,2013-02-14 15:04:00,
2013-02-14 09:09:00,38.9,34.5,29.71,West,263,8.0,15.0,84,0.00,CLR,CLR,0.00,0.0,WeatherDisplay:10.37,2013-02-14 15:09:00,
2013-02-14 09:14:00,39.1,34.7,29.71,West,264,10.0,16.0,84,0.00,CLR,CLR,0.00,0.0,WeatherDisplay:10.37,2013-02-14 15:14:00,
2013-02-14 09:19:00,39.5,34.8,29.71,WSW,256,12.0,18.0,83,0.00,CLR,CLR,0.00,0.0,WeatherDisplay:10.37,2013-02-14 15:19:00,
2013-02-14 09:24:00,39.6,34.6,29.71,WSW,258,13.0,18.0,82,0.00,CLR,CLR,0.00,0.0,WeatherDisplay:10.37,2013-02-14 15:24:00,
2013-02-14 09:29:00,39.4,34.4,29.71,West,260,9.0,16.0,82,0.00,CLR,CLR,0.00,0.0,WeatherDisplay:10.37,2013-02-14 15:29:00,
2013-02-14 09:34:00,39.3,34.6,29.71,WSW,253,10.0,15.0,83,0.00,CLR,CLR,0.00,0.0,WeatherDisplay:10.37,2013-02-14 15:34:00,
2013-02-14 09:39:00,39.5,34.5,29.71,WSW,253,9.0,20.0,82,0.00,CLR,CLR,0.00,0.0,WeatherDisplay:10.37,2013-02-14 15:39:00,
2013-02-14 09:44:00,39.6,34.2,29.71,WSW,256,10.0,18.0,81,0.00,CLR,CLR,0.00,0.0,WeatherDisplay:10.37,2013-02-14 15:44:00,
2013-02-14 09:49:00,39.5,34.1,29.71,WSW,258,8.0,17.0,81,0.00,CLR,CLR,0.00,0.0,WeatherDisplay:10.37,2013-02-14 15:49:00,
2013-02-14 09:54:00,39.3,34.0,29.71,West,262,9.0,18.0,81,0.00,CLR,CLR,0.00,0.0,WeatherDisplay:10.37,2013-02-14 15:54:00,
2013-02-14 09:59:00,39.2,33.8,29.71,West,263,8.0,14.0,81,0.00,CLR,CLR,0.00,0.0,WeatherDisplay:10.37,2013-02-14 15:59:00,
2013-02-14 10:09:00,38.8,33.8,29.71,WSW,258,8.0,18.0,82,0.00,CLR,CLR,0.00,0.0,WeatherDisplay:10.37,2013-02-14 16:09:00,
2013-02-14 10:14:00,38.8,33.8,29.72,West,265,8.0,14.0,82,0.00,CLR,CLR,0.00,0.0,WeatherDisplay:10.37,2013-02-14 16:14:00,
2013-02-14 10:19:00,38.6,33.6,29.72,West,268,7.0,17.0,82,0.00,CLR,CLR,0.00,0.0,WeatherDisplay:10.37,2013-02-14 16:19:00,
2013-02-14 10:24:00,38.4,33.7,29.72,West,261,10.0,16.0,83,0.00,CLR,CLR,0.00,0.0,WeatherDisplay:10.37,2013-02-14 16:24:00,
2013-02-14 10:29:00,38.3,32.9,29.72,West,266,7.0,15.0,81,0.00,CLR,CLR,0.00,0.0,WeatherDisplay:10.37,2013-02-14 16:29:00,
2013-02-14 10:34:00,38.2,33.2,29.72,West,268,7.0,18.0,82,0.00,CLR,CLR,0.00,0.0,WeatherDisplay:10.37,2013-02-14 16:34:00,
2013-02-14 10:39:00,38.1,33.0,29.73,West,269,7.0,14.0,82,0.00,CLR,CLR,0.00,0.0,WeatherDisplay:10.37,2013-02-14 16:39:00,
2013-02-14 10:44:00,37.8,32.5,29.73,West,272,9.0,16.0,81,0.00,CLR,CLR,0.00,0.0,WeatherDisplay:10.37,2013-02-14 16:44:00,
2013-02-14 10:49:00,37.6,32.3,29.73,West,272,7.0,18.0,81,0.00,CLR,CLR,0.00,0.0,WeatherDisplay:10.37,2013-02-14 16:49:00,
2013-02-14 10:54:00,37.8,32.5,29.73,West,266,7.0,18.0,81,0.00,CLR,CLR,0.00,0.0,WeatherDisplay:10.37,2013-02-14 16:54:00,
2013-02-14 10:59:00,38.3,32.6,29.73,West,263,7.0,16.0,80,0.00,CLR,CLR,0.00,0.0,WeatherDisplay:10.37,2013-02-14 16:59:00,
2013-02-14 11:04:00,38.8,32.8,29.73,West,259,9.0,16.0,79,0.00,CLR,CLR,0.00,0.0,WeatherDisplay:10.37,2013-02-14 17:04:00,
2013-02-14 11:09:00,39.2,32.9,29.73,West,263,10.0,20.0,78,0.00,CLR,CLR,0.00,0.0,WeatherDisplay:10.37,2013-02-14 17:09:00,
2013-02-14 11:14:00,39.8,33.5,29.73,West,272,9.0,16.0,78,0.00,CLR,CLR,0.00,0.0,WeatherDisplay:10.37,2013-02-14 17:14:00,
2013-02-14 11:19:00,39.9,32.9,29.74,West,266,10.0,17.0,76,0.00,CLR,CLR,0.00,0.0,WeatherDisplay:10.37,2013-02-14 17:19:00,
2013-02-14 11:24:00,40.0,33.4,29.74,West,265,8.0,17.0,77,0.00,CLR,CLR,0.00,0.0,WeatherDisplay:10.37,2013-02-14 17:24:00,
2013-02-14 11:29:00,39.8,32.8,29.74,West,263,10.0,20.0,76,0.00,CLR,CLR,0.00,0.0,WeatherDisplay:10.37,2013-02-14 17:29:00,
2013-02-14 11:34:00,39.5,32.9,29.74,West,267,9.0,16.0,77,0.00,CLR,CLR,0.00,0.0,WeatherDisplay:10.37,2013-02-14 17:34:00,
2013-02-14 11:39:00,39.5,32.6,29.74,West,267,12.0,25.0,76,0.00,CLR,CLR,0.00,0.0,WeatherDisplay:10.37,2013-02-14 17:39:00,
2013-02-14 11:44:00,39.7,32.7,29.74,West,263,9.0,14.0,76,0.00,CLR,CLR,0.00,0.0,WeatherDisplay:10.37,2013-02-14 17:44:00,
2013-02-14 11:49:00,39.7,33.1,29.74,West,260,8.0,20.0,77,0.00,CLR,CLR,0.00,0.0,WeatherDisplay:10.37,2013-02-14 17:49:00,
2013-02-14 11:54:00,39.5,32.9,29.74,West,259,9.0,15.0,77,0.00,CLR,CLR,0.00,0.0,WeatherDisplay:10.37,2013-02-14 17:54:00,
2013-02-14 11:59:00,39.2,32.6,29.74,West,262,12.0,18.0,77,0.00,CLR,CLR,0.00,0.0,WeatherDisplay:10.37,2013-02-14 17:59:00,
2013-02-14 12:04:00,39.2,32.6,29.74,West,266,10.0,17.0,77,0.00,CLR,CLR,0.00,0.0,WeatherDisplay:10.37,2013-02-14 18:04:00,
2013-02-14 12:09:00,39.3,33.0,29.74,West,269,9.0,20.0,78,0.00,CLR,CLR,0.00,0.0,WeatherDisplay:10.37,2013-02-14 18:09:00,
2013-02-14 12:14:00,39.4,33.1,29.74,West,266,9.0,18.0,78,0.00,CLR,CLR,0.00,0.0,WeatherDisplay:10.37,2013-02-14 18:14:00,
2013-02-14 12:19:00,39.3,33.0,29.75,West,269,8.0,17.0,78,0.00,CLR,CLR,0.00,0.0,WeatherDisplay:10.37,2013-02-14 18:19:00,
2013-02-14 12:24:00,39.1,32.8,29.75,West,269,10.0,20.0,78,0.00,CLR,CLR,0.00,0.0,WeatherDisplay:10.37,2013-02-14 18:24:00,
2013-02-14 12:29:00,39.0,33.0,29.75,West,268,7.0,16.0,79,0.00,CLR,CLR,0.00,0.0,WeatherDisplay:10.37,2013-02-14 18:29:00,
2013-02-14 12:34:00,39.2,33.2,29.75,West,269,8.0,17.0,79,0.00,CLR,CLR,0.00,0.0,WeatherDisplay:10.37,2013-02-14 18:34:00,
2013-02-14 12:39:00,39.3,33.0,29.75,West,275,9.0,16.0,78,0.00,CLR,CLR,0.00,0.0,WeatherDisplay:10.37,2013-02-14 18:39:00,
2013-02-14 12:44:00,39.2,33.2,29.75,West,272,10.0,14.0,79,0.00,CLR,CLR,0.00,0.0,WeatherDisplay:10.37,2013-02-14 18:44:00,
2013-02-14 12:49:00,38.9,33.3,29.75,West,274,8.0,18.0,80,0.00,CLR,CLR,0.00,0.0,WeatherDisplay:10.37,2013-02-14 18:49:00,
2013-02-14 12:54:00,38.8,32.8,29.75,West,281,9.0,20.0,79,0.00,CLR,CLR,0.00,0.0,WeatherDisplay:10.37,2013-02-14 18:54:00,
2013-02-14 12:59:00,38.6,33.0,29.75,West,279,9.0,20.0,80,0.00,CLR,CLR,0.00,0.0,WeatherDisplay:10.37,2013-02-14 18:59:00,
2013-02-14 13:04:00,38.6,33.0,29.75,West,276,8.0,17.0,80,0.00,CLR,CLR,0.00,0.0,WeatherDisplay:10.37,2013-02-14 19:04:00,
2013-02-14 13:09:00,38.6,33.3,29.75,West,276,9.0,15.0,81,0.00,CLR,CLR,0.00,0.0,WeatherDisplay:10.37,2013-02-14 19:09:00,
2013-02-14 13:14:00,38.6,33.0,29.76,West,273,10.0,16.0,80,0.00,CLR,CLR,0.00,0.0,WeatherDisplay:10.37,2013-02-14 19:14:00,
2013-02-14 13:19:00,38.6,33.0,29.76,West,270,9.0,17.0,80,0.00,CLR,CLR,0.00,0.0,WeatherDisplay:10.37,2013-02-14 19:19:00,
2013-02-14 13:24:00,38.6,33.0,29.76,West,273,9.0,14.0,80,0.00,CLR,CLR,0.00,0.0,WeatherDisplay:10.37,2013-02-14 19:24:00,
2013-02-14 13:29:00,38.6,33.3,29.76,West,276,7.0,15.0,81,0.00,CLR,CLR,0.00,0.0,WeatherDisplay:10.37,2013-02-14 19:29:00,
2013-02-14 13:34:00,38.6,33.3,29.76,West,275,7.0,12.0,81,0.00,CLR,CLR,0.00,0.0,WeatherDisplay:10.37,2013-02-14 19:34:00,
2013-02-14 13:39:00,38.6,33.3,29.76,West,275,8.0,17.0,81,0.00,CLR,CLR,0.00,0.0,WeatherDisplay:10.37,2013-02-14 19:39:00,
2013-02-14 13:44:00,39.1,33.8,29.76,West,279,8.0,13.0,81,0.00,CLR,CLR,0.00,0.0,WeatherDisplay:10.37,2013-02-14 19:44:00,
2013-02-14 13:49:00,39.4,33.7,29.76,West,278,8.0,13.0,80,0.00,CLR,CLR,0.00,0.0,WeatherDisplay:10.37,2013-02-14 19:49:00,
2013-02-14 13:54:00,39.6,33.6,29.77,West,276,8.0,15.0,79,0.00,CLR,CLR,0.00,0.0,WeatherDisplay:10.37,2013-02-14 19:54:00,
2013-02-14 13:59:00,39.6,33.6,29.77,West,275,6.0,13.0,79,0.00,CLR,CLR,0.00,0.0,WeatherDisplay:10.37,2013-02-14 19:59:00,
2013-02-14 14:04:00,39.7,33.4,29.77,West,277,8.0,16.0,78,0.00,CLR,CLR,0.00,0.0,WeatherDisplay:10.37,2013-02-14 20:04:00,
2013-02-14 14:09:00,39.8,33.5,29.78,West,274,6.0,12.0,78,0.00,CLR,CLR,0.00,0.0,WeatherDisplay:10.37,2013-02-14 20:09:00,
2013-02-14 14:14:00,39.5,33.2,29.79,West,269,9.0,16.0,78,0.00,CLR,CLR,0.00,0.0,WeatherDisplay:10.37,2013-02-14 20:14:00,
2013-02-14 14:19:00,39.5,33.2,29.79,West,270,9.0,20.0,78,0.00,CLR,CLR,0.00,0.0,WeatherDisplay:10.37,2013-02-14 20:19:00,
2013-02-14 14:24:00,39.4,33.4,29.79,West,274,8.0,14.0,79,0.00,CLR,CLR,0.00,0.0,WeatherDisplay:10.37,2013-02-14 20:24:00,
2013-02-14 14:29:00,39.4,32.8,29.80,West,274,10.0,17.0,77,0.00,CLR,CLR,0.00,0.0,WeatherDisplay:10.37,2013-02-14 20:29:00,
2013-02-14 14:39:00,39.6,33.0,29.81,West,275,7.0,14.0,77,0.00,CLR,CLR,0.00,0.0,WeatherDisplay:10.37,2013-02-14 20:39:00,
2013-02-14 14:44:00,39.6,33.3,29.80,West,276,7.0,12.0,78,0.00,CLR,CLR,0.00,0.0,WeatherDisplay:10.37,2013-02-14 20:44:00,
2013-02-14 14:49:00,39.7,33.4,29.81,West,278,7.0,13.0,78,0.00,CLR,CLR,0.00,0.0,WeatherDisplay:10.37,2013-02-14 20:49:00,
2013-02-14 14:54:00,39.8,33.8,29.81,West,281,6.0,10.0,79,0.00,CLR,CLR,0.00,0.0,WeatherDisplay:10.37,2013-02-14 20:54:00,
2013-02-14 14:59:00,39.8,33.5,29.81,West,280,6.0,12.0,78,0.00,CLR,CLR,0.00,0.0,WeatherDisplay:10.37,2013-02-14 20:59:00,
2013-02-14 15:04:00,40.1,33.5,29.82,West,281,6.0,12.0,77,0.00,CLR,CLR,0.00,0.0,WeatherDisplay:10.37,2013-02-14 21:04:00,
2013-02-14 15:09:00,40.2,33.6,29.82,West,275,6.0,16.0,77,0.00,CLR,CLR,0.00,0.0,WeatherDisplay:10.37,2013-02-14 21:09:00,
2013-02-14 15:14:00,40.2,33.2,29.82,West,279,8.0,14.0,76,0.00,CLR,CLR,0.00,0.0,WeatherDisplay:10.37,2013-02-14 21:14:00,
2013-02-14 15:19:00,40.0,32.7,29.83,WNW,282,8.0,15.0,75,0.00,CLR,CLR,0.00,0.0,WeatherDisplay:10.37,2013-02-14 21:19:00,
2013-02-14 15:24:00,39.8,32.5,29.83,WNW,285,8.0,13.0,75,0.00,CLR,CLR,0.00,0.0,WeatherDisplay:10.37,2013-02-14 21:24:00,
2013-02-14 15:29:00,40.0,32.4,29.83,WNW,289,8.0,15.0,74,0.00,CLR,CLR,0.00,0.0,WeatherDisplay:10.37,2013-02-14 21:29:00,
2013-02-14 15:34:00,40.1,32.2,29.83,WNW,287,7.0,15.0,73,0.00,CLR,CLR,0.00,0.0,WeatherDisplay:10.37,2013-02-14 21:34:00,
2013-02-14 15:39:00,40.0,32.4,29.84,WNW,285,6.0,12.0,74,0.00,CLR,CLR,0.00,0.0,WeatherDisplay:10.37,2013-02-14 21:39:00,
2013-02-14 15:44:00,40.0,32.4,29.84,WNW,287,8.0,13.0,74,0.00,CLR,CLR,0.00,0.0,WeatherDisplay:10.37,2013-02-14 21:44:00,
2013-02-14 15:49:00,39.9,32.6,29.84,WNW,292,8.0,12.0,75,0.00,CLR,CLR,0.00,0.0,WeatherDisplay:10.37,2013-02-14 21:49:00,
2013-02-14 15:54:00,39.9,32.3,29.84,WNW,285,7.0,13.0,74,0.00,CLR,CLR,0.00,0.0,WeatherDisplay:10.37,2013-02-14 21:54:00,
2013-02-14 15:59:00,39.9,32.3,29.84,WNW,283,6.0,10.0,74,0.00,CLR,CLR,0.00,0.0,WeatherDisplay:10.37,2013-02-14 21:59:00,
2013-02-14 16:04:00,39.9,32.3,29.84,West,281,5.0,10.0,74,0.00,CLR,CLR,0.00,0.0,WeatherDisplay:10.37,2013-02-14 22:04:00,
2013-02-14 16:09:00,39.8,32.2,29.85,West,279,6.0,9.0,74,0.00,CLR,CLR,0.00,0.0,WeatherDisplay:10.37,2013-02-14 22:09:00,
2013-02-14 16:14:00,39.7,32.1,29.85,West,278,6.0,9.0,74,0.00,CLR,CLR,0.00,0.0,WeatherDisplay:10.37,2013-02-14 22:14:00,
2013-02-14 16:19:00,39.4,32.1,29.85,West,280,5.0,6.0,75,0.00,CLR,CLR,0.00,0.0,WeatherDisplay:10.37,2013-02-14 22:19:00,
2013-02-14 16:24:00,39.3,32.4,29.85,WNW,282,6.0,12.0,76,0.00,CLR,CLR,0.00,0.0,WeatherDisplay:10.37,2013-02-14 22:24:00,
2013-02-14 16:29:00,39.3,32.4,29.86,WNW,282,5.0,8.0,76,0.00,CLR,CLR,0.00,0.0,WeatherDisplay:10.37,2013-02-14 22:29:00,
2013-02-14 16:34:00,39.2,32.6,29.86,WNW,285,5.0,8.0,77,0.00,CLR,CLR,0.00,0.0,WeatherDisplay:10.37,2013-02-14 22:34:00,
2013-02-14 16:39:00,39.1,32.1,29.86,WNW,286,5.0,10.0,76,0.00,CLR,CLR,0.00,0.0,WeatherDisplay:10.37,2013-02-14 22:39:00,
2013-02-14 16:44:00,38.8,32.2,29.86,WNW,285,5.0,9.0,77,0.00,CLR,CLR,0.00,0.0,WeatherDisplay:10.37,2013-02-14 22:44:00,
2013-02-14 16:49:00,38.7,32.1,29.87,WNW,290,7.0,9.0,77,0.00,CLR,CLR,0.00,0.0,WeatherDisplay:10.37,2013-02-14 22:49:00,
2013-02-14 16:54:00,38.7,32.1,29.87,WNW,290,6.0,12.0,77,0.00,CLR,CLR,0.00,0.0,WeatherDisplay:10.37,2013-02-14 22:54:00,
2013-02-14 16:59:00,38.5,32.2,29.87,WNW,291,6.0,12.0,78,0.00,CLR,CLR,0.00,0.0,WeatherDisplay:10.37,2013-02-14 22:59:00,
2013-02-14 17:04:00,38.4,31.8,29.88,WNW,292,5.0,9.0,77,0.00,CLR,CLR,0.00,0.0,WeatherDisplay:10.37,2013-02-14 23:04:00,
2013-02-14 17:09:00,38.3,31.4,29.88,WNW,293,7.0,15.0,76,0.00,CLR,CLR,0.00,0.0,WeatherDisplay:10.37,2013-02-14 23:09:00,
2013-02-14 17:14:00,38.0,31.1,29.89,WNW,293,6.0,10.0,76,0.00,CLR,CLR,0.00,0.0,WeatherDisplay:10.37,2013-02-14 23:14:00,
2013-02-14 17:19:00,38.0,31.1,29.89,WNW,293,7.0,10.0,76,0.00,CLR,CLR,0.00,0.0,WeatherDisplay:10.37,2013-02-14 23:19:00,
2013-02-14 17:24:00,37.9,30.7,29.90,WNW,294,7.0,9.0,75,0.00,CLR,CLR,0.00,0.0,WeatherDisplay:10.37,2013-02-14 23:24:00,
2013-02-14 17:29:00,37.7,30.8,29.90,WNW,296,5.0,6.0,76,0.00,CLR,CLR,0.00,0.0,WeatherDisplay:10.37,2013-02-14 23:29:00,
2013-02-14 17:34:00,37.3,30.7,29.90,WNW,302,5.0,6.0,77,0.00,CLR,CLR,0.00,0.0,WeatherDisplay:10.37,2013-02-14 23:34:00,
2013-02-14 17:39:00,37.0,30.5,29.90,NW,305,3.0,6.0,77,0.00,CLR,CLR,0.00,0.0,WeatherDisplay:10.37,2013-02-14 23:39:00,
2013-02-14 17:44:00,36.8,30.3,29.91,NW,305,5.0,7.0,77,0.00,CLR,CLR,0.00,0.0,WeatherDisplay:10.37,2013-02-14 23:44:00,
2013-02-14 17:49:00,36.7,29.8,29.91,WNW,303,5.0,8.0,76,0.00,CLR,CLR,0.00,0.0,WeatherDisplay:10.37,2013-02-14 23:49:00,
2013-02-14 17:54:00,36.6,29.7,29.91,WNW,302,5.0,7.0,76,0.00,CLR,CLR,0.00,0.0,WeatherDisplay:10.37,2013-02-14 23:54:00,
2013-02-14 17:59:00,36.4,29.6,29.91,WNW,301,3.0,7.0,76,0.00,CLR,CLR,0.00,0.0,WeatherDisplay:10.37,2013-02-14 23:59:00,
2013-02-14 18:04:00,36.2,29.7,29.92,WNW,301,3.0,6.0,77,0.00,CLR,CLR,0.00,0.0,WeatherDisplay:10.37,2013-02-15 00:04:00,
2013-02-14 18:09:00,36.1,29.6,29.92,WNW,301,3.0,6.0,77,0.00,CLR,CLR,0.00,0.0,WeatherDisplay:10.37,2013-02-15 00:09:00,
2013-02-14 18:14:00,36.0,29.5,29.92,WNW,299,2.0,5.0,77,0.00,CLR,CLR,0.00,0.0,WeatherDisplay:10.37,2013-02-15 00:14:00,
2013-02-14 18:19:00,35.8,29.3,29.92,WNW,302,3.0,7.0,77,0.00,CLR,CLR,0.00,0.0,WeatherDisplay:10.37,2013-02-15 00:19:00,
2013-02-14 18:29:00,35.8,29.0,29.93,WNW,300,3.0,7.0,76,0.00,CLR,CLR,0.00,0.0,WeatherDisplay:10.37,2013-02-15 00:29:00,
2013-02-14 18:34:00,35.6,28.8,29.93,WNW,299,3.0,7.0,76,0.00,CLR,CLR,0.00,0.0,WeatherDisplay:10.37,2013-02-15 00:34:00,
2013-02-14 18:39:00,35.5,28.7,29.94,WNW,295,5.0,6.0,76,0.00,CLR,CLR,0.00,0.0,WeatherDisplay:10.37,2013-02-15 00:39:00,
2013-02-14 18:44:00,35.5,28.7,29.94,WNW,292,3.0,5.0,76,0.00,CLR,CLR,0.00,0.0,WeatherDisplay:10.37,2013-02-15 00:44:00,
2013-02-14 18:49:00,35.4,28.6,29.94,WNW,291,3.0,6.0,76,0.00,CLR,CLR,0.00,0.0,WeatherDisplay:10.37,2013-02-15 00:49:00,
2013-02-14 18:54:00,35.4,28.6,29.94,WNW,293,2.0,8.0,76,0.00,CLR,CLR,0.00,0.0,WeatherDisplay:10.37,2013-02-15 00:54:00,
2013-02-14 18:59:00,35.3,28.2,29.95,WNW,294,3.0,6.0,75,0.00,CLR,CLR,0.00,0.0,WeatherDisplay:10.37,2013-02-15 00:59:00,
2013-02-14 19:09:00,35.1,28.3,29.95,WNW,294,3.0,6.0,76,0.00,CLR,CLR,0.00,0.0,WeatherDisplay:10.37,2013-02-15 01:09:00,
2013-02-14 19:14:00,35.1,28.3,29.95,WNW,293,3.0,4.0,76,0.00,CLR,CLR,0.00,0.0,WeatherDisplay:10.37,2013-02-15 01:14:00,
2013-02-14 19:19:00,34.9,28.1,29.95,WNW,291,3.0,5.0,76,0.00,CLR,CLR,0.00,0.0,WeatherDisplay:10.37,2013-02-15 01:19:00,
2013-02-14 19:29:00,34.1,27.6,29.95,WNW,296,2.0,3.0,77,0.00,CLR,CLR,0.00,0.0,WeatherDisplay:10.37,2013-02-15 01:29:00,
2013-02-14 19:39:00,33.7,28.2,29.95,WNW,294,2.0,3.0,80,0.00,CLR,CLR,0.00,0.0,WeatherDisplay:10.37,2013-02-15 01:39:00,
2013-02-14 19:44:00,33.8,28.3,29.95,WNW,292,1.0,3.0,80,0.00,CLR,CLR,0.00,0.0,WeatherDisplay:10.37,2013-02-15 01:44:00,
2013-02-14 19:49:00,33.8,28.3,29.95,WNW,292,1.0,3.0,80,0.00,CLR,CLR,0.00,0.0,WeatherDisplay:10.37,2013-02-15 01:49:00,
2013-02-14 19:54:00,33.7,28.5,29.95,WNW,292,1.0,3.0,81,0.00,CLR,CLR,0.00,0.0,WeatherDisplay:10.37,2013-02-15 01:54:00,
2013-02-14 19:59:00,33.8,28.3,29.95,WNW,299,2.0,3.0,80,0.00,CLR,CLR,0.00,0.0,WeatherDisplay:10.37,2013-02-15 01:59:00,
2013-02-14 20:04:00,33.9,28.4,29.95,NW,306,1.0,3.0,80,0.00,CLR,CLR,0.00,0.0,WeatherDisplay:10.37,2013-02-15 02:04:00,
2013-02-14 20:14:00,33.9,28.7,29.95,West,281,0.0,3.0,81,0.00,CLR,CLR,0.00,0.0,WeatherDisplay:10.37,2013-02-15 02:14:00,
2013-02-14 20:19:00,33.8,28.6,29.95,WNW,288,2.0,3.0,81,0.00,CLR,CLR,0.00,0.0,WeatherDisplay:10.37,2013-02-15 02:19:00,
2013-02-14 20:24:00,33.7,28.5,29.96,WNW,288,1.0,2.0,81,0.00,CLR,CLR,0.00,0.0,WeatherDisplay:10.37,2013-02-15 02:24:00,
2013-02-14 20:29:00,33.7,28.5,29.95,WNW,288,0.0,2.0,81,0.00,CLR,CLR,0.00,0.0,WeatherDisplay:10.37,2013-02-15 02:29:00,
2013-02-14 20:34:00,33.7,28.5,29.95,WNW,288,0.0,1.0,81,0.00,CLR,CLR,0.00,0.0,WeatherDisplay:10.37,2013-02-15 02:34:00,
2013-02-14 20:39:00,33.6,28.7,29.95,WNW,288,1.0,3.0,82,0.00,CLR,CLR,0.00,0.0,WeatherDisplay:10.37,2013-02-15 02:39:00,
2013-02-14 20:44:00,33.3,28.4,29.96,WNW,288,1.0,2.0,82,0.00,CLR,CLR,0.00,0.0,WeatherDisplay:10.37,2013-02-15 02:44:00,
2013-02-14 20:54:00,32.4,27.8,29.96,WNW,288,0.0,0.0,83,0.00,CLR,CLR,0.00,0.0,WeatherDisplay:10.37,2013-02-15 02:54:00,
2013-02-14 21:04:00,32.3,28.3,29.97,WNW,282,2.0,3.0,85,0.00,CLR,CLR,0.00,0.0,WeatherDisplay:10.37,2013-02-15 03:04:00,
2013-02-14 21:09:00,32.4,28.4,29.96,West,276,2.0,3.0,85,0.00,CLR,CLR,0.00,0.0,WeatherDisplay:10.37,2013-02-15 03:09:00,
2013-02-14 21:14:00,32.8,28.8,29.96,West,275,1.0,3.0,85,0.00,CLR,CLR,0.00,0.0,WeatherDisplay:10.37,2013-02-15 03:14:00,
2013-02-14 21:24:00,32.8,28.8,29.96,West,275,0.0,0.0,85,0.00,CLR,CLR,0.00,0.0,WeatherDisplay:10.37,2013-02-15 03:24:00,
2013-02-14 21:29:00,32.7,28.7,29.96,West,275,1.0,2.0,85,0.00,CLR,CLR,0.00,0.0,WeatherDisplay:10.37,2013-02-15 03:29:00,
2013-02-14 21:34:00,32.6,28.6,29.96,West,275,2.0,3.0,85,0.00,CLR,CLR,0.00,0.0,WeatherDisplay:10.37,2013-02-15 03:34:00,
2013-02-14 21:39:00,32.9,28.9,29.96,West,275,1.0,3.0,85,0.00,CLR,CLR,0.00,0.0,WeatherDisplay:10.37,2013-02-15 03:39:00,
2013-02-14 21:44:00,32.9,28.9,29.96,West,275,1.0,2.0,85,0.00,CLR,CLR,0.00,0.0,WeatherDisplay:10.37,2013-02-15 03:44:00,
2013-02-14 21:49:00,33.0,28.9,29.96,West,275,0.0,2.0,85,0.00,CLR,CLR,0.00,0.0,WeatherDisplay:10.37,2013-02-15 03:49:00,
2013-02-14 21:54:00,33.0,29.0,29.97,West,264,1.0,4.0,85,0.00,CLR,CLR,0.00,0.0,WeatherDisplay:10.37,2013-02-15 03:54:00,
2013-02-14 22:04:00,33.1,29.4,29.97,WSW,254,1.0,3.0,86,0.00,CLR,CLR,0.00,0.0,WeatherDisplay:10.37,2013-02-15 04:04:00,
2013-02-14 22:09:00,33.2,29.2,29.97,WSW,254,2.0,3.0,85,0.00,CLR,CLR,0.00,0.0,WeatherDisplay:10.37,2013-02-15 04:09:00,
2013-02-14 22:14:00,33.3,29.6,29.97,West,261,1.0,4.0,86,0.00,CLR,CLR,0.00,0.0,WeatherDisplay:10.37,2013-02-15 04:14:00,
2013-02-14 22:19:00,33.3,29.3,29.97,West,273,2.0,3.0,85,0.00,CLR,CLR,0.00,0.0,WeatherDisplay:10.37,2013-02-15 04:19:00,
2013-02-14 22:24:00,33.2,29.8,29.97,WNW,283,2.0,4.0,87,0.00,CLR,CLR,0.00,0.0,WeatherDisplay:10.37,2013-02-15 04:24:00,
2013-02-14 22:29:00,33.2,29.7,29.97,West,281,1.0,4.0,87,0.00,CLR,CLR,0.00,0.0,WeatherDisplay:10.37,2013-02-15 04:29:00,
2013-02-14 22:34:00,33.4,29.4,29.97,WNW,284,5.0,6.0,85,0.00,CLR,CLR,0.00,0.0,WeatherDisplay:10.37,2013-02-15 04:34:00,
2013-02-14 22:39:00,33.6,29.6,29.97,West,278,2.0,7.0,85,0.00,CLR,CLR,0.00,0.0,WeatherDisplay:10.37,2013-02-15 04:39:00,
2013-02-14 22:44:00,33.4,29.7,29.97,West,275,2.0,4.0,86,0.00,CLR,CLR,0.00,0.0,WeatherDisplay:10.37,2013-02-15 04:44:00,
2013-02-14 22:49:00,33.3,29.6,29.97,WNW,282,2.0,4.0,86,0.00,CLR,CLR,0.00,0.0,WeatherDisplay:10.37,2013-02-15 04:49:00,
2013-02-14 22:54:00,33.3,29.3,29.97,WNW,289,1.0,5.0,85,0.00,CLR,CLR,0.00,0.0,WeatherDisplay:10.37,2013-02-15 04:54:00,
2013-02-14 22:59:00,33.3,29.3,29.97,WNW,294,1.0,2.0,85,0.00,CLR,CLR,0.00,0.0,WeatherDisplay:10.37,2013-02-15 04:59:00,
2013-02-14 23:04:00,33.2,29.5,29.98,WNW,296,1.0,3.0,86,0.00,CLR,CLR,0.00,0.0,WeatherDisplay:10.37,2013-02-15 05:04:00,
2013-02-14 23:09:00,33.2,29.4,29.98,WNW,296,1.0,2.0,86,0.00,CLR,CLR,0.00,0.0,WeatherDisplay:10.37,2013-02-15 05:09:00,
2013-02-14 23:14:00,33.2,29.7,29.98,WNW,292,3.0,4.0,87,0.00,CLR,CLR,0.00,0.0,WeatherDisplay:10.37,2013-02-15 05:14:00,
2013-02-14 23:19:00,33.1,29.9,29.98,WNW,289,2.0,4.0,88,0.00,CLR,CLR,0.00,0.0,WeatherDisplay:10.37,2013-02-15 05:19:00,
2013-02-14 23:24:00,32.9,30.0,29.98,WNW,287,2.0,4.0,89,0.00,CLR,CLR,0.00,0.0,WeatherDisplay:10.37,2013-02-15 05:24:00,
2013-02-14 23:29:00,32.8,30.2,29.98,WNW,282,2.0,4.0,90,0.00,CLR,CLR,0.00,0.0,WeatherDisplay:10.37,2013-02-15 05:29:00,
2013-02-14 23:34:00,32.5,30.2,29.98,WNW,287,1.0,4.0,91,0.00,CLR,CLR,0.00,0.0,WeatherDisplay:10.37,2013-02-15 05:34:00,
2013-02-14 23:44:00,32.1,30.0,29.98,WNW,285,1.0,4.0,92,0.00,CLR,CLR,0.00,0.0,WeatherDisplay:10.37,2013-02-15 05:44:00,
2013-02-14 23:49:00,31.9,30.1,29.98,West,278,1.0,3.0,93,0.00,CLR,CLR,0.00,0.0,WeatherDisplay:10.37,2013-02-15 05:49:00,
2013-02-14 23:54:00,31.9,30.1,29.97,West,275,1.0,3.0,93,0.00,CLR,CLR,0.00,0.0,WeatherDisplay:10.37,2013-02-15 05:54:00,
2013-02-14 23:59:00,31.8,30.3,29.97,West,273,1.0,3.0,94,0.00,CLR,CLR,0.00,0.0,WeatherDisplay:10.37,2013-02-15 05:59:00,